Simultaneous Nadir Overpasses (SNOs) Predictions

Prediction of SNOs between GOES-17 and NOAA-20 Satellite Orbit:

Table of predicted SNOs for the next 14.0 days since TLE Epoch: 3/12/2022
Index Date Time (GOES-17) GOES-17 Lat,Lon NOAA-20 Lat,Lon Distance(km) Time Diff (sec)
1 03/12/2022 22:34:09 0.04,-137.20 -0.04,-137.57 42.32 80
2 03/13/2022 22:18:06 0.04,-137.20 0.99,-133.05 473.68 80
3 03/15/2022 10:39:54 -0.03,-137.20 0.25,-138.31 126.71 80
4 03/16/2022 10:18:30 -0.03,-137.20 -0.78,-133.78 388.98 80
5 03/17/2022 22:43:08 0.02,-137.18 -0.43,-139.08 217.55 80
6 03/18/2022 22:24:24 0.02,-137.17 0.60,-134.56 297.80 80
7 03/20/2022 10:46:14 -0.02,-137.16 0.58,-139.83 303.66 80
8 03/21/2022 10:24:50 -0.03,-137.15 -0.45,-135.30 211.08 80
9 03/22/2022 22:46:47 0.02,-137.12 -0.75,-140.60 397.09 80
10 03/23/2022 22:30:43 0.02,-137.10 0.23,-136.07 117.16 80
11 03/25/2022 10:52:32 -0.02,-137.08 0.95,-141.34 486.01 80
